Time,TemperatureF,DewpointF,PressureIn,WindDirection,WindDirectionDegrees,WindSpeedMPH,WindSpeedGustMPH,Humidity,HourlyPrecipIn,Conditions,Clouds,dailyrainin,SoftwareType,DateUTC
2013-06-11 18:30:00,59.0,57.9,29.56,ESE,111,1.0,1.0,96,0.00,,,0.69,Wunderground v.1.15,2013-06-11 22:30:00,
2013-06-11 18:40:00,59.3,58.4,29.56,East,97,1.0,1.0,97,0.00,,,0.69,Wunderground v.1.15,2013-06-11 22:40:00,
2013-06-11 18:50:00,60.2,59.9,29.56,East,81,1.0,1.0,99,0.00,,,0.69,Wunderground v.1.15,2013-06-11 22:50:00,
2013-06-11 19:00:00,60.7,60.4,29.56,East,93,0.0,3.0,99,0.00,,,0.70,Wunderground v.1.15,2013-06-11 23:00:00,
2013-06-11 19:10:00,61.0,60.7,29.56,East,95,0.0,9.0,99,0.00,,,0.70,Wunderground v.1.15,2013-06-11 23:10:00,
2013-06-11 19:20:00,61.2,60.9,29.56,SE,138,0.0,9.0,99,0.00,,,0.70,Wunderground v.1.15,2013-06-11 23:20:00,
2013-06-11 19:30:00,61.2,60.9,29.56,East,87,1.0,9.0,99,0.00,,,0.70,Wunderground v.1.15,2013-06-11 23:30:00,
2013-06-11 19:40:00,61.2,60.9,29.56,ESE,108,1.0,9.0,99,0.00,,,0.70,Wunderground v.1.15,2013-06-11 23:40:00,
2013-06-11 19:50:00,61.0,60.7,29.56,ESE,109,0.0,9.0,99,0.00,,,0.70,Wunderground v.1.15,2013-06-11 23:50:00,
2013-06-11 20:00:00,61.0,60.7,29.56,SSE,150,2.0,2.0,99,0.00,,,0.70,Wunderground v.1.15,2013-06-12 00:00:00,
2013-06-11 20:10:00,61.0,60.7,29.56,SE,131,1.0,1.0,99,0.00,,,0.70,Wunderground v.1.15,2013-06-12 00:10:00,
2013-06-11 20:20:00,60.9,60.6,29.56,ESE,102,0.0,9.0,99,0.00,,,0.71,Wunderground v.1.15,2013-06-12 00:20:00,
2013-06-11 20:30:00,60.9,60.6,29.56,WNW,286,1.0,9.0,99,0.00,,,0.71,Wunderground v.1.15,2013-06-12 00:30:00,
2013-06-11 20:40:00,60.1,59.8,29.57,West,262,1.0,1.0,99,0.00,,,0.71,Wunderground v.1.15,2013-06-12 00:40:00,
2013-06-11 20:50:00,59.6,59.3,29.58,WNW,298,1.0,1.0,99,0.00,,,0.71,Wunderground v.1.15,2013-06-12 00:50:00,
2013-06-11 21:00:00,59.5,59.2,29.58,WNW,298,0.0,9.0,99,0.00,,,0.71,Wunderground v.1.15,2013-06-12 01:00:00,
2013-06-11 21:10:00,59.3,59.0,29.58,WNW,298,0.0,9.0,99,0.00,,,0.72,Wunderground v.1.15,2013-06-12 01:10:00,
2013-06-11 21:20:00,59.2,59.2,29.59,WNW,298,0.0,9.0,100,0.08,,,0.73,Wunderground v.1.15,2013-06-12 01:20:00,
2013-06-11 21:30:00,59.0,59.0,29.59,WNW,299,0.0,9.0,100,0.04,,,0.73,Wunderground v.1.15,2013-06-12 01:30:00,
2013-06-11 21:40:00,59.0,59.0,29.59,WNW,298,0.0,9.0,100,0.00,,,0.73,Wunderground v.1.15,2013-06-12 01:40:00,
2013-06-11 21:50:00,59.0,59.0,29.59,WNW,298,0.0,9.0,100,0.00,,,0.73,Wunderground v.1.15,2013-06-12 01:50:00,
2013-06-11 22:00:00,59.0,59.0,29.60,WNW,298,0.0,9.0,100,0.00,,,0.73,Wunderground v.1.15,2013-06-12 02:00:00,
2013-06-11 22:20:00,59.0,59.0,29.60,WNW,298,0.0,9.0,100,0.00,,,0.73,Wunderground v.1.15,2013-06-12 02:20:00,
2013-06-11 22:30:00,58.9,58.9,29.60,WNW,298,0.0,9.0,100,0.00,,,0.73,Wunderground v.1.15,2013-06-12 02:30:00,
2013-06-11 22:40:00,59.2,59.2,29.60,WNW,298,0.0,9.0,100,0.00,,,0.73,Wunderground v.1.15,2013-06-12 02:40:00,
2013-06-11 22:50:00,59.3,59.3,29.60,WNW,298,0.0,9.0,100,0.00,,,0.73,Wunderground v.1.15,2013-06-12 02:50:00,
2013-06-11 23:00:00,59.5,59.5,29.59,WNW,298,0.0,9.0,100,0.00,,,0.73,Wunderground v.1.15,2013-06-12 03:00:00,
2013-06-11 23:10:00,59.3,59.3,29.59,SSE,166,0.0,9.0,100,0.00,,,0.73,Wunderground v.1.15,2013-06-12 03:10:00,
2013-06-11 23:20:00,59.3,59.3,29.59,SE,131,0.0,9.0,100,0.00,,,0.73,Wunderground v.1.15,2013-06-12 03:20:00,
2013-06-11 23:40:00,59.0,59.0,29.59,SE,126,0.0,9.0,100,0.00,,,0.73,Wunderground v.1.15,2013-06-12 03:40:00,
2013-06-11 23:50:00,58.9,58.9,29.59,SE,131,0.0,9.0,100,0.00,,,0.73,Wunderground v.1.15,2013-06-12 03:50:00,